JST604 YBLN-YPPH

Flight info

Callsign JST604
Flight time 0h 35m
Altitude 15000
Route PAGRI DCT SOLUS/N0322F140
Aircraft A20N/M-SDE2E3FGHIRWXY/LB1

Departure

Time 2026-04-27 04:29
Airport Busselton Margaret River Regional Airport (YBLN)

Arrival

Time 2026-04-27 05:05
Airport Perth International Airport (YPPH)
Time Latitude Longitude Altitude Speed Heading
2026-04-27 03:46 -33.68831 115.39698 53 ft 0 kts 336°
2026-04-27 04:13 -33.68842 115.39704 61 ft 4 kts 336°
2026-04-27 04:14 -33.68867 115.39717 55 ft 4 kts 336°
2026-04-27 04:14 -33.68889 115.39729 59 ft 1 kts 336°
2026-04-27 04:14 -33.68911 115.39740 56 ft 4 kts 342°
2026-04-27 04:14 -33.68937 115.39747 57 ft 4 kts 360°
2026-04-27 04:15 -33.68959 115.39743 57 ft 1 kts 25°
2026-04-27 04:15 -33.68960 115.39743 57 ft 1 kts 25°
2026-04-27 04:21 -33.68959 115.39743 61 ft 0 kts 25°
2026-04-27 04:24 -33.68940 115.39755 59 ft 5 kts 30°
2026-04-27 04:24 -33.68922 115.39805 57 ft 8 kts 96°
2026-04-27 04:24 -33.68948 115.39883 59 ft 12 kts 116°
2026-04-27 04:24 -33.68990 115.39983 55 ft 13 kts 116°
2026-04-27 04:25 -33.68971 115.40073 59 ft 13 kts 25°
2026-04-27 04:25 -33.68878 115.40128 60 ft 16 kts 25°
2026-04-27 04:25 -33.68763 115.40192 61 ft 20 kts 26°
2026-04-27 04:25 -33.68632 115.40268 56 ft 22 kts 24°
2026-04-27 04:26 -33.68479 115.40354 55 ft 26 kts 26°
2026-04-27 04:26 -33.68311 115.40451 56 ft 28 kts 26°
2026-04-27 04:26 -33.68128 115.40555 59 ft 30 kts 26°
2026-04-27 04:26 -33.67940 115.40662 57 ft 28 kts 25°
2026-04-27 04:27 -33.67807 115.40714 61 ft 4 kts 359°
2026-04-27 04:27 -33.67778 115.40715 60 ft 6 kts
2026-04-27 04:27 -33.67745 115.40755 56 ft 7 kts 99°
2026-04-27 04:27 -33.67767 115.40760 56 ft 4 kts 195°
2026-04-27 04:28 -33.67770 115.40758 56 ft 0 kts 204°
2026-04-27 04:28 -33.67905 115.40682 58 ft 56 kts 205°
2026-04-27 04:29 -33.68468 115.40360 60 ft 119 kts 205°
2026-04-27 04:29 -33.69349 115.39849 157 ft 156 kts 205°
2026-04-27 04:29 -33.70338 115.39263 652 ft 161 kts 204°
2026-04-27 04:29 -33.71362 115.38676 1245 ft 165 kts 204°
2026-04-27 04:30 -33.72400 115.38085 1832 ft 173 kts 205°
2026-04-27 04:30 -33.73569 115.37423 2055 ft 201 kts 205°
2026-04-27 04:30 -33.74925 115.36643 2393 ft 228 kts 206°
2026-04-27 04:30 -33.76426 115.35771 2971 ft 251 kts 206°
2026-04-27 04:31 -33.77905 115.34561 3737 ft 262 kts 230°
2026-04-27 04:31 -33.78746 115.32673 4771 ft 262 kts 257°
2026-04-27 04:31 -33.78763 115.30476 5670 ft 268 kts 284°
2026-04-27 04:31 -33.77922 115.28469 6615 ft 273 kts 310°
2026-04-27 04:32 -33.76406 115.27109 7591 ft 277 kts 333°
2026-04-27 04:32 -33.74569 115.26424 8543 ft 279 kts 345°
2026-04-27 04:32 -33.72671 115.25941 9642 ft 278 kts 345°
2026-04-27 04:32 -33.70768 115.25386 10464 ft 286 kts 342°
2026-04-27 04:33 -33.68765 115.24730 10848 ft 309 kts 347°
2026-04-27 04:33 -33.66566 115.24648 11240 ft 332 kts
2026-04-27 04:33 -33.64355 115.25581 12061 ft 342 kts 27°
2026-04-27 04:33 -33.62387 115.27247 12954 ft 348 kts 32°
2026-04-27 04:34 -33.60434 115.29000 13853 ft 351 kts 32°
2026-04-27 04:34 -33.58464 115.30776 14322 ft 357 kts 32°
2026-04-27 04:34 -33.56503 115.32539 14404 ft 355 kts 32°
2026-04-27 04:34 -33.54521 115.34316 14528 ft 354 kts 32°
2026-04-27 04:35 -33.52558 115.36072 14603 ft 349 kts 32°
2026-04-27 04:35 -33.50577 115.37838 14700 ft 358 kts 32°
2026-04-27 04:35 -33.48570 115.39626 14836 ft 356 kts 32°
2026-04-27 04:35 -33.46608 115.41359 14938 ft 358 kts 32°
2026-04-27 04:36 -33.44556 115.43168 15021 ft 367 kts 30°
2026-04-27 04:36 -33.42521 115.44957 15060 ft 360 kts 32°
2026-04-27 04:36 -33.40528 115.46744 15048 ft 356 kts 33°
2026-04-27 04:36 -33.38538 115.48539 15057 ft 360 kts 32°
2026-04-27 04:37 -33.36527 115.50341 15058 ft 359 kts 32°
2026-04-27 04:37 -33.34552 115.52103 15059 ft 359 kts 32°
2026-04-27 04:37 -33.32542 115.53888 15059 ft 359 kts 32°
2026-04-27 04:37 -33.30532 115.55669 15059 ft 359 kts 32°
2026-04-27 04:38 -33.28516 115.57454 15059 ft 359 kts 32°
2026-04-27 04:38 -33.26511 115.59229 15058 ft 359 kts 32°
2026-04-27 04:38 -33.24505 115.61003 15058 ft 359 kts 32°
2026-04-27 04:38 -33.22496 115.62779 15062 ft 360 kts 32°
2026-04-27 04:39 -33.20511 115.64533 15043 ft 359 kts 32°
2026-04-27 04:39 -33.18476 115.66328 15056 ft 367 kts 32°
2026-04-27 04:39 -33.16422 115.68142 15057 ft 365 kts 32°
2026-04-27 04:39 -33.14383 115.69942 15054 ft 363 kts 31°
2026-04-27 04:40 -33.12342 115.71742 15052 ft 366 kts 32°
2026-04-27 04:40 -33.10319 115.73526 15054 ft 365 kts 32°
2026-04-27 04:40 -33.08277 115.75325 15056 ft 365 kts 32°
2026-04-27 04:40 -33.06231 115.77126 15058 ft 365 kts 32°
2026-04-27 04:41 -33.04179 115.78931 15050 ft 365 kts 32°
2026-04-27 04:41 -33.02129 115.80734 15057 ft 366 kts 31°
2026-04-27 04:41 -33.00099 115.82517 15048 ft 366 kts 32°
2026-04-27 04:41 -32.98056 115.84312 15050 ft 363 kts 32°
2026-04-27 04:42 -32.96011 115.86107 15054 ft 365 kts 32°
2026-04-27 04:42 -32.93963 115.87903 15054 ft 365 kts 32°
2026-04-27 04:42 -32.91937 115.89680 15046 ft 367 kts 31°
2026-04-27 04:42 -32.89867 115.91492 15053 ft 368 kts 31°
2026-04-27 04:43 -32.87807 115.93297 15048 ft 367 kts 31°
2026-04-27 04:43 -32.85750 115.95099 15045 ft 367 kts 31°
2026-04-27 04:43 -32.83694 115.96904 15049 ft 365 kts 31°
2026-04-27 04:43 -32.81656 115.98693 15047 ft 364 kts 36°
2026-04-27 04:44 -32.79624 116.00526 15044 ft 367 kts 31°
2026-04-27 04:44 -32.78259 116.01715 15039 ft 367 kts 34°
2026-04-27 04:44 -32.76232 116.03525 15041 ft 361 kts 31°
2026-04-27 04:44 -32.74178 116.05288 15043 ft 364 kts 30°
2026-04-27 04:45 -32.71445 116.07608 15045 ft 365 kts 30°
2026-04-27 04:45 -32.70076 116.08780 15045 ft 364 kts 30°
2026-04-27 04:45 -32.68022 116.10550 15039 ft 364 kts 31°
2026-04-27 04:45 -32.65963 116.12336 15039 ft 365 kts 31°
2026-04-27 04:46 -32.63941 116.14095 15037 ft 365 kts 31°
2026-04-27 04:46 -32.61890 116.15881 15034 ft 366 kts 31°
2026-04-27 04:46 -32.59828 116.17676 15037 ft 367 kts 31°
2026-04-27 04:46 -32.57770 116.19466 15042 ft 366 kts 31°
2026-04-27 04:47 -32.55727 116.21240 15032 ft 368 kts 30°
2026-04-27 04:47 -32.53660 116.23034 15036 ft 367 kts 31°
2026-04-27 04:47 -32.51592 116.24818 14816 ft 367 kts 30°
2026-04-27 04:47 -32.49337 116.26134 14240 ft 355 kts 10°
2026-04-27 04:48 -32.46942 116.26449 13718 ft 340 kts 350°
2026-04-27 04:48 -32.44719 116.25793 13212 ft 327 kts 333°
2026-04-27 04:48 -32.42702 116.24580 12722 ft 322 kts 330°
2026-04-27 04:48 -32.40723 116.23371 12241 ft 318 kts 330°
2026-04-27 04:49 -32.38763 116.22187 11777 ft 314 kts 330°
2026-04-27 04:49 -32.36826 116.21025 11302 ft 310 kts 330°
2026-04-27 04:49 -32.34906 116.19879 10853 ft 305 kts 330°
2026-04-27 04:49 -32.33042 116.18769 10435 ft 301 kts 331°
2026-04-27 04:50 -32.31203 116.17676 10306 ft 286 kts 331°
2026-04-27 04:50 -32.29462 116.16643 10199 ft 272 kts 331°
2026-04-27 04:50 -32.27826 116.15674 10084 ft 260 kts 330°
2026-04-27 04:50 -32.26223 116.14720 9737 ft 255 kts 330°
2026-04-27 04:51 -32.24635 116.13772 9246 ft 255 kts 330°
2026-04-27 04:51 -32.23056 116.12834 8621 ft 260 kts 330°
2026-04-27 04:51 -32.21378 116.12012 8268 ft 260 kts 339°
2026-04-27 04:51 -32.19607 116.11636 8027 ft 261 kts 357°
2026-04-27 04:52 -32.17832 116.12057 7797 ft 259 kts
2026-04-27 04:52 -32.16070 116.12600 7592 ft 263 kts
2026-04-27 04:52 -32.14299 116.13145 7310 ft 262 kts
2026-04-27 04:52 -32.12584 116.13717 7007 ft 257 kts
2026-04-27 04:53 -32.10838 116.14284 6723 ft 261 kts
2026-04-27 04:53 -32.09093 116.14842 6438 ft 257 kts
2026-04-27 04:53 -32.07378 116.15388 6140 ft 254 kts
2026-04-27 04:53 -32.05663 116.15918 5840 ft 255 kts
2026-04-27 04:54 -32.03945 116.16439 5542 ft 255 kts
2026-04-27 04:54 -32.02254 116.16941 5243 ft 252 kts
2026-04-27 04:54 -32.00549 116.17433 5097 ft 252 kts
2026-04-27 04:54 -31.98839 116.17911 5006 ft 252 kts
2026-04-27 04:55 -31.97145 116.18382 4992 ft 249 kts
2026-04-27 04:55 -31.95428 116.18858 4995 ft 253 kts
2026-04-27 04:55 -31.93724 116.19339 4998 ft 250 kts
2026-04-27 04:55 -31.92035 116.19819 4992 ft 254 kts
2026-04-27 04:56 -31.90354 116.20270 4998 ft 245 kts
2026-04-27 04:56 -31.88642 116.20742 4995 ft 256 kts
2026-04-27 04:56 -31.86906 116.21233 4992 ft 256 kts
2026-04-27 04:56 -31.85178 116.21732 4991 ft 255 kts
2026-04-27 04:57 -31.83484 116.22240 4996 ft 253 kts
2026-04-27 04:57 -31.81778 116.22748 4990 ft 254 kts
2026-04-27 04:57 -31.80056 116.23249 4997 ft 254 kts
2026-04-27 04:57 -31.78345 116.23295 4995 ft 243 kts 342°
2026-04-27 04:58 -31.76886 116.22355 4994 ft 241 kts 315°
2026-04-27 04:58 -31.75815 116.20826 4993 ft 241 kts 309°
2026-04-27 04:58 -31.74797 116.19272 4996 ft 243 kts 309°
2026-04-27 04:58 -31.73767 116.17683 4990 ft 244 kts 308°
2026-04-27 04:59 -31.72740 116.16100 5000 ft 244 kts 308°
2026-04-27 04:59 -31.71943 116.14342 4997 ft 248 kts 287°
2026-04-27 04:59 -31.71977 116.12324 5000 ft 248 kts 258°
2026-04-27 04:59 -31.72685 116.10542 4975 ft 238 kts 249°
2026-04-27 05:00 -31.73460 116.08867 4862 ft 228 kts 249°
2026-04-27 05:00 -31.74206 116.07274 4746 ft 219 kts 248°
2026-04-27 05:00 -31.74935 116.05696 4394 ft 220 kts 248°
2026-04-27 05:00 -31.75662 116.04110 4062 ft 220 kts 249°
2026-04-27 05:01 -31.76373 116.02553 3869 ft 209 kts 248°
2026-04-27 05:01 -31.77043 116.01108 3690 ft 201 kts 243°
2026-04-27 05:01 -31.78166 116.00156 3423 ft 207 kts 197°
2026-04-27 05:01 -31.79619 116.00082 3018 ft 212 kts 180°
2026-04-27 05:02 -31.81101 116.00056 2549 ft 214 kts 186°
2026-04-27 05:02 -31.82582 115.99789 2147 ft 212 kts 191°
2026-04-27 05:02 -31.85310 115.99043 1585 ft 190 kts 192°
2026-04-27 05:03 -31.86549 115.98683 1334 ft 176 kts 192°
2026-04-27 05:03 -31.87681 115.98354 1113 ft 162 kts 193°
2026-04-27 05:03 -31.88727 115.98050 906 ft 146 kts 193°
2026-04-27 05:03 -31.89672 115.97777 694 ft 134 kts 193°
2026-04-27 05:04 -31.90593 115.97503 574 ft 139 kts 193°
2026-04-27 05:04 -31.91524 115.97235 379 ft 136 kts 194°
2026-04-27 05:04 -31.92401 115.96974 182 ft 130 kts 193°
2026-04-27 05:04 -31.93311 115.96714 52 ft 132 kts 193°
2026-04-27 05:05 -31.94083 115.96489 62 ft 91 kts 194°
2026-04-27 05:05 -31.94431 115.96425 60 ft 33 kts 152°
2026-04-27 05:05 -31.94475 115.96514 57 ft 11 kts 104°
2026-04-27 05:05 -31.94487 115.96565 52 ft 2 kts 104°
2026-04-27 05:06 -31.94494 115.96596 51 ft 6 kts 104°
2026-04-27 05:06 -31.94498 115.96616 55 ft 0 kts 104°
2026-04-27 05:06 -31.94499 115.96618 55 ft 1 kts 104°
2026-04-27 05:06 -31.94504 115.96644 55 ft 5 kts 104°
2026-04-27 05:07 -31.94515 115.96697 57 ft 8 kts 104°
2026-04-27 05:07 -31.94530 115.96767 56 ft 10 kts 104°
2026-04-27 05:07 -31.94531 115.96848 50 ft 10 kts 46°
2026-04-27 05:07 -31.94496 115.96862 55 ft 0 kts 17°